Weather History for K2D5 - March, 2014

Change the Weather History Date:

Thursday, March 27, 2014

  Actual Average (KABR) Record (KABR)
Temperature  
Mean Temperature 27 °F 35 °F  
Max Temperature 37 °F 46 °F 83 °F (1946)
Min Temperature 15 °F 24 °F -12 °F (1913)
Degree Days  
Heating Degree Days 38 30  
Month to date heating degree days 972  
Since 1 July heating degree days 7435  
Cooling Degree Days 0 0  
Month to date cooling degree days 0  
Year to date cooling degree days 0  
Moisture  
Dew Point 18 °F    
Average Humidity 67    
Maximum Humidity 93    
Minimum Humidity 35    
Precipitation  
Precipitation 0.00 in 0.05 in 0.81 in (1975)
Month to date precipitation 0.97  
Year to date precipitation 1.99  
Snow  
Snow 0.00 in - - ()
Month to date snowfall  
Since 1 July snowfall  
Snow Depth -    
Sea Level Pressure  
Sea Level Pressure 29.66 in    
Wind  
Wind Speed 21 mph (North)    
Max Wind Speed 30 mph    
Max Gust Speed 38 mph    
Visibility 10 miles    
Events      
T = Trace of Precipitation, MM = Missing Value Source: NWS Daily Summary

Daily Weather History Graph

Daily Weather History Graph

Search for Another Location

Airport or City:

Trip Planner

Search our weather history database for the weather conditions in past years. The results will help you decide how hot, cold, wet, or windy it might be!

Date:

Astronomy

Mar. 27, 2014 Rise Set
Actual Time 7:21 AM CDT 7:54 PM CDT
Civil Twilight 6:51 AM CDT 8:24 PM CDT
Nautical Twilight 6:15 AM CDT 9:00 PM CDT
Astronomical Twilight 5:39 AM CDT 9:37 PM CDT
Moon 5:24 AM CDT (3/27) 4:34 PM CDT (3/27)
Length of Visible Light 13h 32m
Length of Day
12h 32m
Waning Crescent, 13% of the Moon is Illuminated
Mar 27
Waning Crescent
Mar 30
New
Apr 7
First Quarter
Apr 15
Full
Apr 22
Last Quarter

Hourly Weather History & Observations

Time (CDT) Temp. Windchill Dew Point Humidity Pressure Visibility Wind Dir Wind Speed Gust Speed Precip Events Conditions
12:15 AM 32.0 °F 20.1 °F 26.6 °F 80% 29.43 in 10.0 mi NNE 19.6 mph - N/A   Clear
12:35 AM 32.0 °F 19.8 °F 26.6 °F 80% 29.43 in 10.0 mi NNE 20.7 mph 26.5 mph N/A   Clear
12:55 AM 32.0 °F 20.1 °F 26.6 °F 80% 29.43 in 10.0 mi NNE 19.6 mph - N/A   Clear
1:15 AM 32.0 °F 21.2 °F 24.8 °F 75% 29.45 in 10.0 mi NNE 16.1 mph - N/A   Clear
1:35 AM 30.2 °F 18.1 °F 24.8 °F 80% 29.45 in 10.0 mi NNE 18.4 mph - N/A   Clear
1:55 AM 30.2 °F 17.8 °F 24.8 °F 80% 29.44 in 10.0 mi NNE 19.6 mph 24.2 mph N/A   Clear
2:15 AM 30.2 °F 18.1 °F 24.8 °F 80% 29.46 in 10.0 mi NNE 18.4 mph 24.2 mph N/A   Clear
2:35 AM 28.4 °F 15.1 °F 24.8 °F 86% 29.46 in 10.0 mi North 20.7 mph 26.5 mph N/A   Partly Cloudy
2:55 AM 28.4 °F 15.8 °F 24.8 °F 86% 29.47 in 10.0 mi NNE 18.4 mph - N/A   Mostly Cloudy
3:15 AM 28.4 °F 14.7 °F 23.0 °F 80% 29.47 in 10.0 mi North 21.9 mph - N/A   Partly Cloudy
3:35 AM 28.4 °F 14.7 °F 23.0 °F 80% 29.46 in 10.0 mi North 21.9 mph 28.8 mph N/A   Clear
3:55 AM 28.4 °F 13.8 °F 23.0 °F 80% 29.47 in 10.0 mi North 25.3 mph - N/A   Clear
4:15 AM 28.4 °F 14.1 °F 23.0 °F 80% 29.48 in 10.0 mi North 24.2 mph 31.1 mph N/A   Clear
4:35 AM 28.4 °F 14.1 °F 23.0 °F 80% 29.49 in 10.0 mi North 24.2 mph 29.9 mph N/A   Clear
4:55 AM 28.4 °F 14.1 °F 23.0 °F 80% 29.51 in 10.0 mi North 24.2 mph 28.8 mph N/A   Clear
5:15 AM 28.4 °F 15.1 °F 23.0 °F 80% 29.51 in 10.0 mi North 20.7 mph 26.5 mph N/A   Clear
5:35 AM 28.4 °F 15.4 °F 23.0 °F 80% 29.52 in 10.0 mi North 19.6 mph 27.6 mph N/A   Clear
5:55 AM 26.6 °F 11.7 °F 23.0 °F 86% 29.53 in 10.0 mi North 24.2 mph 28.8 mph N/A   Clear
6:15 AM 26.6 °F 11.7 °F 23.0 °F 86% 29.54 in 10.0 mi North 24.2 mph 28.8 mph N/A   Clear
6:35 AM 26.6 °F 11.7 °F 23.0 °F 86% 29.55 in 10.0 mi North 24.2 mph 32.2 mph N/A   Clear
6:55 AM 24.8 °F 10.3 °F 23.0 °F 93% 29.57 in 10.0 mi North 20.7 mph 26.5 mph N/A   Clear
7:15 AM 24.8 °F 10.3 °F 23.0 °F 93% 29.58 in 10.0 mi North 20.7 mph 29.9 mph N/A   Clear
7:35 AM 24.8 °F 9.6 °F 23.0 °F 93% 29.58 in 10.0 mi North 23.0 mph 31.1 mph N/A   Clear
7:55 AM 24.8 °F 9.6 °F 23.0 °F 93% 29.59 in 10.0 mi North 23.0 mph 29.9 mph N/A   Scattered Clouds
8:15 AM 24.8 °F 10.3 °F 23.0 °F 93% 29.59 in 10.0 mi North 20.7 mph 29.9 mph N/A   Overcast
8:35 AM 24.8 °F 9.6 °F 23.0 °F 93% 29.60 in 10.0 mi North 23.0 mph 35.7 mph N/A   Overcast
8:55 AM 26.6 °F 11.4 °F 23.0 °F 86% 29.60 in 10.0 mi North 25.3 mph 35.7 mph N/A   Mostly Cloudy
9:15 AM 26.6 °F 10.6 °F 23.0 °F 86% 29.61 in 10.0 mi North 28.8 mph - N/A   Overcast
9:35 AM 26.6 °F 12.4 °F 23.0 °F 86% 29.62 in 10.0 mi North 21.9 mph 34.5 mph N/A   Overcast
9:55 AM 26.6 °F 11.4 °F 23.0 °F 86% 29.63 in 10.0 mi North 25.3 mph 38.0 mph N/A   Overcast
10:15 AM 28.4 °F 13.3 °F 23.0 °F 80% 29.64 in 10.0 mi North 27.6 mph 34.5 mph N/A   Overcast
10:35 AM 28.4 °F 13.3 °F 23.0 °F 80% 29.64 in 10.0 mi North 27.6 mph 36.8 mph N/A   Overcast
10:55 AM 28.4 °F 13.3 °F 23.0 °F 80% 29.65 in 10.0 mi NNE 27.6 mph 38.0 mph N/A   Overcast
11:15 AM 28.4 °F 12.7 °F 21.2 °F 74% 29.65 in 10.0 mi North 29.9 mph 34.5 mph N/A   Overcast
11:35 AM 28.4 °F 13.0 °F 21.2 °F 74% 29.66 in 10.0 mi North 28.8 mph 35.7 mph N/A   Overcast
11:55 AM 30.2 °F 15.9 °F 21.2 °F 69% 29.67 in 10.0 mi NNE 26.5 mph 32.2 mph N/A   Overcast
12:15 PM 32.0 °F 17.6 °F 19.4 °F 60% 29.66 in 10.0 mi North 29.9 mph 34.5 mph N/A   Mostly Cloudy
12:35 PM 32.0 °F 18.4 °F 19.4 °F 60% 29.67 in 10.0 mi North 26.5 mph 33.4 mph N/A   Partly Cloudy
12:55 PM 32.0 °F 17.9 °F 19.4 °F 60% 29.67 in 10.0 mi North 28.8 mph 34.5 mph N/A   Partly Cloudy
1:15 PM 33.8 °F 20.5 °F 19.4 °F 56% 29.68 in 10.0 mi North 27.6 mph 35.7 mph N/A   Clear
1:35 PM 35.6 °F 23.4 °F 19.4 °F 52% 29.68 in 10.0 mi North 25.3 mph 32.2 mph N/A   Clear
1:55 PM 35.6 °F 23.7 °F 17.6 °F 48% 29.69 in 10.0 mi North 24.2 mph 33.4 mph N/A   Clear
2:15 PM 35.6 °F 22.7 °F 17.6 °F 48% 29.69 in 10.0 mi North 28.8 mph 34.5 mph N/A   Clear
2:35 PM 35.6 °F 23.2 °F 17.6 °F 48% 29.69 in 10.0 mi North 26.5 mph 34.5 mph N/A   Clear
2:55 PM 35.6 °F 23.4 °F 17.6 °F 48% 29.70 in 10.0 mi North 25.3 mph 32.2 mph N/A   Clear
3:15 PM 35.6 °F 23.2 °F 15.8 °F 44% 29.71 in 10.0 mi North 26.5 mph 33.4 mph N/A   Partly Cloudy
3:35 PM 37.4 °F 25.6 °F 15.8 °F 41% 29.71 in 10.0 mi North 26.5 mph 34.5 mph N/A   Clear
3:55 PM 37.4 °F 26.4 °F 15.8 °F 41% 29.71 in 10.0 mi North 23.0 mph 27.6 mph N/A   Clear
4:15 PM 37.4 °F 25.6 °F 15.8 °F 41% 29.72 in 10.0 mi North 26.5 mph 34.5 mph N/A   Clear
4:35 PM 35.6 °F 23.2 °F 14.0 °F 41% 29.72 in 10.0 mi North 26.5 mph 35.7 mph N/A   Clear
4:55 PM 35.6 °F 23.4 °F 14.0 °F 41% 29.73 in 10.0 mi North 25.3 mph 33.4 mph N/A   Clear
5:15 PM 35.6 °F 23.4 °F 14.0 °F 41% 29.74 in 10.0 mi North 25.3 mph 29.9 mph N/A   Clear
5:35 PM 35.6 °F 23.4 °F 12.2 °F 38% 29.75 in 10.0 mi North 25.3 mph 31.1 mph N/A   Clear
5:55 PM 33.8 °F 21.3 °F 10.4 °F 38% 29.75 in 10.0 mi North 24.2 mph 32.2 mph N/A   Clear
6:15 PM 32.0 °F 18.9 °F 10.4 °F 41% 29.76 in 10.0 mi North 24.2 mph 31.1 mph N/A   Clear
6:35 PM 32.0 °F 19.2 °F 8.6 °F 38% 29.78 in 10.0 mi North 23.0 mph - N/A   Clear
6:55 PM 32.0 °F 18.6 °F 6.8 °F 35% 29.78 in 10.0 mi North 25.3 mph 33.4 mph N/A   Clear
7:15 PM 30.2 °F 18.5 °F 6.8 °F 37% 29.80 in 10.0 mi North 17.3 mph 28.8 mph N/A   Clear
7:35 PM 28.4 °F 15.1 °F 5.0 °F 37% 29.81 in 10.0 mi North 20.7 mph - N/A   Clear
7:55 PM 26.6 °F 14.7 °F 6.8 °F 43% 29.81 in 10.0 mi North 15.0 mph - N/A   Clear
8:15 PM 26.6 °F 13.8 °F 6.8 °F 43% 29.83 in 10.0 mi North 17.3 mph - N/A   Clear
8:35 PM 24.8 °F 14.0 °F 8.6 °F 50% 29.84 in 10.0 mi North 11.5 mph - N/A   Clear
8:55 PM 23.0 °F 12.4 °F 8.6 °F 54% 29.85 in 10.0 mi North 10.4 mph - N/A   Clear
9:15 PM 23.0 °F 12.4 °F 8.6 °F 54% 29.87 in 10.0 mi North 10.4 mph - N/A   Clear
9:35 PM 21.2 °F 10.9 °F 8.6 °F 58% 29.88 in 10.0 mi North 9.2 mph - N/A   Clear
9:55 PM 19.4 °F 7.9 °F 8.6 °F 63% 29.89 in 10.0 mi North 10.4 mph - N/A   Clear
10:15 PM 19.4 °F 9.5 °F 8.6 °F 63% 29.90 in 10.0 mi North 8.1 mph - N/A   Clear
10:35 PM 19.4 °F 8.6 °F 10.4 °F 68% 29.92 in 10.0 mi North 9.2 mph - N/A   Clear
10:55 PM 17.6 °F 6.4 °F 10.4 °F 73% 29.92 in 10.0 mi North 9.2 mph - N/A   Clear
11:15 PM 17.6 °F 7.3 °F 10.4 °F 73% 29.93 in 10.0 mi North 8.1 mph - N/A   Clear
11:35 PM 17.6 °F 6.4 °F 10.4 °F 73% 29.93 in 10.0 mi North 9.2 mph - N/A   Clear
11:55 PM 15.8 °F 5.1 °F 10.4 °F 79% 29.95 in 10.0 mi North 8.1 mph - N/A   Clear